Miscellaneous Local Product
Issued by NWS Hastings, NE

Home | Current Version | Previous Version | Text Only | Print | Product List | Glossary Off
Versions: 1 2 3 4 5 6 7 8 9 10 11 12 13 14 15 16 17 18 19 20 21 22 23 24 25 26 27 28 29 30 31 32 33 34 35 36 37 38 39 40 41 42 43 44 45 46 47 48 49 50

000
AXUS43 KGID 042302
MISGRI

GID CWA HOURLY WEATHER ROUNDUP
NATIONAL WEATHER SERVICE HASTINGS NE
600 PM CDT SAT JUL 04 2015

NOTE: "FAIR" INDICATES FEW OR NO CLOUDS BELOW 12,000 FEET WITH NO
SIGNIFICANT WEATHER AND/OR OBSTRUCTIONS TO VISIBILITY.

...SOUTH CENTRAL NEBRASKA...

CITY           SKY/WX    TMP DP  RH WIND       PRES   REMARKS
GRAND ISLAND   SUNNY     84  66  54 SE14      29.91F
HASTINGS       SUNNY     85  64  49 S12G20    29.91F
KEARNEY        SUNNY     86  64  48 SE16      29.90F
ORD            MOSUNNY   86  65  49 S16       29.87F
YORK           SUNNY     81  66  61 S13       29.93F
AURORA         SUNNY     83  64  53 S15       29.92F
LEXINGTON      SUNNY     89  64  43 SE17G25   29.89S HX  90
HOLDREGE       SUNNY     86  62  44 S13       29.90F
HEBRON         SUNNY     84  59  42 S9        29.93F

...NEBRASKA PANHANDLE...

CITY           SKY/WX    TMP DP  RH WIND       PRES   REMARKS
CHADRON        MOSUNNY   94  62  34 S6        29.79F HX  94
ALLIANCE       PTSUNNY   79  65  62 SE9       29.84F
SCOTTSBLUFF    MOSUNNY   95  49  20 SE12      29.83F HX  92
SIDNEY         SUNNY     93  57  29 S12G22    29.89F HX  91

...WESTERN AND NORTH CENTRAL NEBRASKA...

CITY           SKY/WX    TMP DP  RH WIND       PRES   REMARKS
VALENTINE      MOSUNNY   91  63  39 S20G26    29.81F HX  92
AINSWORTH      SUNNY     88  66  48 S17G23    29.85F HX  90
ONEILL         MOSUNNY   86  66  50 S14G21    29.88F
BROKEN BOW     SUNNY     86  66  51 SE20G26   29.88F
IMPERIAL       MOSUNNY   96  55  25 S18G28    29.84F HX  94
NORTH PLATTE   SUNNY     91  63  39 SE14G22   29.85F HX  92
MCCOOK         MOSUNNY   94  59  31 S16G24    29.84F HX  93

...EASTERN NEBRASKA...

CITY           SKY/WX    TMP DP  RH WIND       PRES   REMARKS
NORFOLK        SUNNY     81  66  60 S17       29.91F
SO SIOUX CITY  MOSUNNY   82  64  54 S14       29.90F
TEKAMAH        MOSUNNY   82  64  54 S12       29.92F
COLUMBUS       SUNNY     81  64  57 S12       29.93F
ALBION         SUNNY     83  64  52 S13       29.92S
OMAHA EPPLEY   PTSUNNY   81  62  52 S14       29.93F
OFFUTT AFB     PTSUNNY   80  64  56 SE10      29.93F
MILLARD        PTSUNNY   81  65  57 SE10      29.93F
LINCOLN        SUNNY     83  65  54 S12       29.93F
NEBRASKA CITY  MOSUNNY   81  56  42 S8        29.96S
BEATRICE       SUNNY     82  62  49 S9        29.94F
FALLS CITY     PTSUNNY   82  62  50 SE7       29.94F

...NORTHERN KANSAS...

CITY           SKY/WX    TMP DP  RH WIND       PRES   REMARKS
GOODLAND       MOSUNNY   92  58  31 S21       29.88F HX  91
NORTON         PTCLDY    91  55  29 SE14G25   29.87S
PHILLIPSBURG   SUNNY     91  64  40 SE14G21   29.89F HX  93
SMITH CENTER   MOSUNNY   90  61  37 SE15G23   29.90F
HAYS           MOSUNNY   90  64  43 S15G24    29.89F HX  91
RUSSELL        SUNNY     89  64  43 S15G24    29.89F HX  90
CONCORDIA      SUNNY     85  61  44 SE14      29.91F
SALINA         MOSUNNY   91  60  35 SE14      29.89F HX  90
TOPEKA         MOSUNNY   83  65  54 SE6       29.94F



USA.gov is the U.S. government's official web portal to all federal, state and local government web resources and services.